THAICOM 4

Last updated on Tue Oct 15 2024 00:02:38 GMT+0000 (Coordinated Universal Time)

1 28786U 05028A 24288.51507748 -.00000364 00000+0 00000+0 0 9999 2 28786 0.0119 225.6163 0002955 358.1594 104.7516 1.00271552 46125
UTC large
Height (km)
Speed (km/s)
/
Latitude / Longitude
Inclination (degrees)
Orbital Period (minutes)
Azimuth
Elevation
Range (km)
Doppler Factor

Next 0 passes for location: London (51.5072 / 0.1276)

Sorry there are no passes over London.